Other Surface Observations
Issued by NWS

Home | Current Version | Previous Version | Text Only | Print | Product List | Glossary On
Versions: 1 2 3 4 5 6 7 8 9 10 11 12 13 14 15 16 17 18 19 20 21 22 23 24 25 26 27 28 29 30 31 32 33 34 35 36 37 38 39 40 41 42 43 44 45 46 47 48 49 50
411
SXUS52 KTAE 292218
OSOTAE
OSOTAE
North Florida/South Alabama/Southwest Georgia Weather Roundup
National Weather Service Tallahassee Florida
600 PM EDT SUN MAY 29 2016

Note: "fair" indicates few or no clouds below 12,000 feet with no
significant weather and/or obstructions to visibility.

!FLZ017-115-028-034-025-292300
...North Florida...

CITY           SKY/WX    TMP DP  RH WIND       PRES   REMARKS
TALLAHASSEE    MOSUNNY   94  56  27 N9        30.00F HX  92
APALACHICOLA   SUNNY     83  73  72 W10       30.02F
PERRY          MOSUNNY   86  70  58 SW7       30.01S HX  91
CROSS CITY       N/A     87  73  62 W6        30.00F HX  94
JACKSONVILLE   MOSUNNY   87  62  43 NW8       30.00S
$$

!FLZ112-006-005-002-011-292300
...Florida Panhandle...

CITY           SKY/WX    TMP DP  RH WIND       PRES   REMARKS
MARIANNA       CLOUDY    86  68  54 W8        30.00F
BONIFAY        NOT AVBL
PANAMA CITY NW FAIR      86  67  52 SW7       30.01S
TYNDALL AFB    CLOUDY    83  71  65 VRB5      30.03S
TYND DRONE APT MOCLDY    82  74  78 NW3       30.03S
DE FUNIAK SPR  FAIR      87  68  52 SW6       30.03S HX  90
EGLIN AFB      PTSUNNY   86  65  49 SW8G16    30.02F
DESTIN         MOSUNNY   86  69  56 W8G17     30.02F HX  90
HURLBURT       MOSUNNY   83  62  49 W10       30.02S
CRESTVIEW      PTSUNNY   87  67  51 S9        30.03F HX  90
PENSACOLA      CLOUDY    85  64  49 SW13      30.03S
$$

!ALZ063-066-292300
...South Alabama...

CITY           SKY/WX    TMP DP  RH WIND       PRES   REMARKS
DOTHAN         MOSUNNY   89  60  37 CALM      30.05F
OZARK CAIRNS   CLOUDY    89  64  44 N5        30.02F HX  90
FT RUCKER HELI CLOUDY    90  63  40 NE5       30.01F HX  91
RUCKER HELI 3  NOT AVBL
RUCKER HELI 2  NOT AVBL
FLORALA APT    HVY RAIN  79  66  65 NE22G33   30.05
ANDALUSIA      PTSUNNY   92  65  40 NW5       30.02F HX  94
TROY           SUNNY     91  64  40 NW7       30.03F HX  92
EUFALA         FAIR      92  62  36 VRB5      30.00F HX  92
MOBILE         PTSUNNY   87  70  56 N8        30.05S HX  92
$$

!GAZ120>161-292300
...Southwest and South Central Georgia...

CITY           SKY/WX    TMP DP  RH WIND       PRES   REMARKS
THOMASVILLE    FAIR      90  59  35 N6        30.02F
BAINBRIDGE     SUNNY     91  61  35 NW6       30.01F HX  91
MOODY AFB      SUNNY     89  60  37 N6        30.00F
VALDOSTA       MOSUNNY   89  58  34 VRB5      30.01F
MOULTRIE       MOSUNNY   88  59  37 NE5       30.02F
BLAKELY        SUNNY     91  61  35 N3        30.02S HX  91
ALBANY         MOSUNNY   92  57  30 N8        30.02F HX  90
TIFTON         CLOUDY    85  63  47 NW6       30.02S
FITZGERALD     MOCLDY    85  64  49 N6        30.05S
CORDELE        CLOUDY    85  68  56 NE8       30.03F
AMERICUS       FAIR      88  52  29 N3        30.03F
HOMERVILLE     FAIR      88  64  45 CALM      30.02S
$$

!GMZ750-755-770-775-292300
...Coastal and Buoy Obs...

STATION/POSITION TIME  TEMP    WIND        PRES    VSBY  WAVE
                       AIR SEA DIR/SP/G                  HT/PER
                 (UTC) (F)     (DEG/KT/KT) (MB)    (MI)  (FT/S)
KEATON BEACH     2200   81     250/  9/ 10 1015.8F
CEDAR KEY        2200   81     290/  8/ 11 1016.5F
C TOWER          2200   78     280/  9/ 10 1017.3F
APALACHICOLA BUO 2150   80 81  280/  6/  8 1016.6F         1
PANAMA CITY BUOY 2150   80 83  250/  4/  6 1017.5F         1/ 6
MOBILE BUOY      2200   81 80   CALM  /  2 1017.5F
ORANGE BCH AL BU 2150   81 82     CALM     1016.7F         1/ 5
$$




USA.gov is the U.S. government's official web portal to all federal, state and local government web resources and services.